Weather History for North Platte, NE

Change the Weather History Date:

Sunday, February 10, 2013

  Actual Average Record
Temperature  
Mean Temperature 32 °F 28 °F  
Max Temperature 40 °F 42 °F 76 °F (1999)
Min Temperature 24 °F 14 °F -22 °F (1981)
Degree Days  
Heating Degree Days 33 37  
Month to date heating degree days 283 382  
Since 1 July heating degree days 4238 4402  
Cooling Degree Days 0 0  
Month to date cooling degree days 0 0  
Year to date cooling degree days 0 0  
Moisture  
Dew Point 24 °F    
Average Humidity 80    
Maximum Humidity 92    
Minimum Humidity 68    
Precipitation  
Precipitation 0.41 in 0.02 in 0.41 in (2013)
Month to date precipitation 0.47 0.13  
Year to date precipitation 0.71 0.47  
Snow  
Snow 4.40 in 0.20 in 4.40 in (2013)
Month to date snowfall 4.4 1.8  
Since 1 July snowfall 13.3 17.4  
Snow Depth 3.00 in    
Sea Level Pressure  
Sea Level Pressure 29.56 in    
Wind  
Wind Speed 25 mph (NW)    
Max Wind Speed 40 mph    
Max Gust Speed 51 mph    
Visibility 4 miles    
Events Fog , Rain , Snow    
T = Trace of Precipitation, MM = Missing Value Source: NWS Daily Summary

Daily Weather History Graph

Daily Weather History Graph

Search for Another Location

Airport:

Trip Planner

Search our weather history database for the weather conditions in past years. The results will help you decide how hot, cold, wet, or windy it might be!

Date:

Astronomy

Feb. 10, 2013 Rise Set
Actual Time 7:43 AM CST 6:11 PM CST
Civil Twilight 7:14 AM CST 6:39 PM CST
Nautical Twilight 6:42 AM CST 7:12 PM CST
Astronomical Twilight 6:10 AM CST 7:44 PM CST
Moon 7:33 AM CST (2/10) 7:04 PM CST (2/10)
Length of Visible Light 11h 24m
Length of Day
10h 27m
New Moon, 0% of the Moon is Illuminated
Feb 10
New Moon
Feb 17
First Quarter
Feb 25
Full
Mar 4
Last Quarter
Mar 11
New

Hourly Weather History & Observations

Time (CST) Temp. Windchill Dew Point Humidity Pressure Visibility Wind Dir Wind Speed Gust Speed Precip Events Conditions
12:06 AM 39.2 °F 34.2 °F 37.4 °F 93% 29.37 in 10.0 mi SSE 6.9 mph - N/A   Overcast
12:53 AM 39.0 °F 32.8 °F 36.0 °F 89% 29.36 in 10.0 mi SE 9.2 mph - N/A   Overcast
1:53 AM 37.9 °F 32.1 °F 35.1 °F 89% 29.33 in 5.0 mi ESE 8.1 mph - 0.02 in Rain Light Rain
2:40 AM 33.8 °F - 33.8 °F 100% 29.31 in 2.5 mi Calm Calm - 0.10 in Rain Heavy Rain
2:53 AM 33.1 °F 28.7 °F 30.9 °F 92% 29.32 in 2.0 mi North 4.6 mph - 0.15 in Snow Light Snow
3:00 AM 33.8 °F 26.4 °F 30.2 °F 87% 29.31 in 1.5 mi North 9.2 mph - 0.01 in Snow Light Snow
3:06 AM 30.2 °F 18.9 °F 28.4 °F 93% 29.30 in 0.8 mi North 16.1 mph 21.9 mph 0.03 in Snow Light Snow
3:14 AM 30.2 °F 17.4 °F 28.4 °F 93% 29.30 in 0.8 mi North 20.7 mph 26.5 mph 0.04 in Snow Light Snow
3:53 AM 28.0 °F 13.9 °F 26.1 °F 92% 29.30 in 0.5 mi North 23.0 mph 32.2 mph 0.10 in Fog Light Freezing Fog
4:21 AM 26.6 °F 10.6 °F 24.8 °F 93% 29.26 in 0.5 mi North 28.8 mph 38.0 mph 0.00 in Fog , Snow Snow
4:40 AM 26.6 °F 10.8 °F 24.8 °F 93% 29.26 in 0.5 mi North 27.6 mph 41.4 mph 0.00 in Fog Light Freezing Fog
4:53 AM 26.1 °F 10.1 °F 23.0 °F 88% 29.30 in 0.5 mi North 27.6 mph 38.0 mph 0.02 in Fog Light Freezing Fog
5:20 AM 26.6 °F 11.4 °F 21.2 °F 80% 29.29 in 0.8 mi North 25.3 mph 42.6 mph N/A   Mist
5:53 AM 25.0 °F 8.6 °F 21.9 °F 88% 29.34 in 0.5 mi North 27.6 mph 36.8 mph N/A Fog Light Freezing Fog
6:21 AM 24.8 °F 8.1 °F 21.2 °F 86% 29.32 in 1.0 mi NNW 28.8 mph 41.4 mph N/A   Mist
6:53 AM 25.0 °F 9.2 °F 21.9 °F 88% 29.38 in 1.2 mi NNW 25.3 mph 40.3 mph 0.00 in Snow Light Snow
7:16 AM 24.8 °F 9.0 °F 21.2 °F 86% 29.36 in 1.8 mi NNW 25.3 mph 42.6 mph 0.00 in Snow Light Snow
7:26 AM 24.8 °F 7.9 °F 21.2 °F 86% 29.37 in 2.0 mi NNW 29.9 mph 39.1 mph 0.00 in Snow Light Snow
7:38 AM 24.8 °F 7.9 °F 21.2 °F 86% 29.38 in 1.5 mi NW 29.9 mph 41.4 mph 0.00 in Snow Light Snow
7:53 AM 25.0 °F 8.1 °F 21.0 °F 85% 29.43 in 1.0 mi NW 29.9 mph 43.7 mph 0.00 in Snow Light Snow
8:09 AM 24.8 °F 7.6 °F 21.2 °F 86% 29.41 in 0.8 mi NW 31.1 mph 42.6 mph 0.00 in Snow Light Snow
8:53 AM 26.1 °F 9.3 °F 21.0 °F 81% 29.49 in 0.8 mi NW 31.1 mph 41.4 mph 0.00 in Snow Light Snow
9:31 AM 26.6 °F 10.3 °F 21.2 °F 80% 29.46 in 1.0 mi NW 29.9 mph 38.0 mph 0.00 in Snow Light Snow
9:53 AM 27.0 °F 11.0 °F 23.0 °F 85% 29.52 in 0.8 mi NW 28.8 mph 44.9 mph 0.00 in Snow Light Snow
10:05 AM 28.4 °F 13.8 °F 23.0 °F 80% 29.48 in 1.2 mi NW 25.3 mph 36.8 mph 0.00 in Snow Light Snow
10:16 AM 28.4 °F 12.7 °F 24.8 °F 86% 29.49 in 0.8 mi NW 29.9 mph 38.0 mph 0.00 in Snow Light Snow
10:46 AM 28.4 °F 13.3 °F 23.0 °F 80% 29.51 in 1.5 mi NW 27.6 mph 38.0 mph 0.00 in Snow Light Snow
10:53 AM 28.9 °F 13.2 °F 23.0 °F 78% 29.56 in 1.2 mi NW 31.1 mph 41.4 mph 0.00 in Snow Light Snow
11:29 AM 28.4 °F 12.5 °F 23.0 °F 80% 29.54 in 1.5 mi NW 31.1 mph 39.1 mph 0.00 in Snow Light Snow
11:53 AM 28.9 °F 12.8 °F 23.0 °F 78% 29.60 in 1.5 mi NW 33.4 mph 43.7 mph 0.00 in   Overcast
12:09 PM 28.4 °F 12.5 °F 23.0 °F 80% 29.56 in 2.0 mi NW 31.1 mph 42.6 mph N/A   Overcast
12:17 PM 30.2 °F 14.9 °F 24.8 °F 80% 29.56 in 1.2 mi NW 31.1 mph 44.9 mph N/A Snow Light Snow
12:29 PM 30.2 °F 15.4 °F 24.8 °F 80% 29.57 in 2.0 mi NW 28.8 mph 41.4 mph N/A Snow Light Snow
12:38 PM 30.2 °F 14.9 °F 24.8 °F 80% 29.57 in 2.5 mi NW 31.1 mph 41.4 mph N/A   Overcast
12:53 PM 32.0 °F 16.2 °F 25.0 °F 75% 29.61 in 3.0 mi NW 38.0 mph 44.9 mph N/A   Overcast
1:00 PM 30.2 °F 15.2 °F 24.8 °F 80% 29.57 in 2.0 mi NW 29.9 mph 44.9 mph N/A   Overcast
1:07 PM 30.2 °F 14.7 °F 24.8 °F 80% 29.58 in 1.8 mi NW 32.2 mph 43.7 mph N/A   Overcast
1:35 PM 32.0 °F 16.7 °F 24.8 °F 75% 29.59 in 2.0 mi NW 34.5 mph 46.0 mph N/A   Overcast
1:44 PM 32.0 °F 17.2 °F 24.8 °F 75% 29.60 in 4.0 mi NW 32.2 mph 40.3 mph N/A   Overcast
1:53 PM 32.0 °F 17.2 °F 25.0 °F 75% 29.65 in 3.0 mi NW 32.2 mph 44.9 mph N/A   Overcast
2:17 PM 33.8 °F 19.9 °F 24.8 °F 70% 29.62 in 10.0 mi NW 31.1 mph 40.3 mph N/A Rain Light Rain
2:26 PM 33.8 °F 19.4 °F 24.8 °F 70% 29.62 in 10.0 mi NW 33.4 mph 41.4 mph N/A   Mostly Cloudy
2:53 PM 33.1 °F 17.8 °F 24.1 °F 70% 29.71 in 9.0 mi NW 36.8 mph 50.6 mph N/A Rain Light Rain
3:10 PM 33.8 °F 18.8 °F 24.8 °F 70% 29.67 in 10.0 mi NW 36.8 mph 49.5 mph N/A   Mostly Cloudy
3:35 PM 32.0 °F 19.2 °F 24.8 °F 75% 29.69 in 10.0 mi NW 23.0 mph 38.0 mph N/A   Overcast
3:53 PM 32.0 °F 17.2 °F 24.1 °F 73% 29.77 in 10.0 mi NW 32.2 mph 42.6 mph N/A   Overcast
4:53 PM 30.9 °F 15.5 °F 21.0 °F 67% 29.83 in 10.0 mi NW 33.4 mph 43.7 mph N/A   Clear
5:53 PM 28.9 °F 14.5 °F 21.0 °F 72% 29.89 in 10.0 mi NW 25.3 mph 31.1 mph N/A   Mostly Cloudy
6:53 PM 28.9 °F 15.4 °F 19.0 °F 67% 29.93 in 10.0 mi NW 21.9 mph 31.1 mph N/A   Clear
7:53 PM 28.0 °F 14.9 °F 19.0 °F 69% 29.98 in 10.0 mi WNW 19.6 mph - N/A   Clear
8:53 PM 26.1 °F 12.7 °F 18.0 °F 71% 30.00 in 10.0 mi WNW 18.4 mph - N/A   Clear
9:53 PM 26.1 °F 13.1 °F 18.0 °F 71% 30.02 in 10.0 mi WNW 17.3 mph - N/A   Clear
10:53 PM 24.1 °F 11.5 °F 17.1 °F 75% 30.05 in 10.0 mi WNW 15.0 mph - N/A   Clear
11:53 PM 24.1 °F 10.6 °F 16.0 °F 71% 30.07 in 10.0 mi NW 17.3 mph - N/A   Clear